[[{"header":{"parameterUnit":"m.s-1","parameterCategory":1,"la1":30.2991,"la2":30.254,"lo1":-89.0895,"lo2":-89.0444,"dy":0.0017,"dx":0.0017,"nx":28,"ny":28,"refTime":"2023-08-30T21:00:00:Z","depth":0,"parameterNumber":2,"parameterNumberName":"U-component_of_WINDS"},"data":[0,0,0,0,0,0,0,0,0,0,0,0,0,0,0,0,0,0,0,0,0,0,0,0,0,0,0,0,0,0,0,0,0,0,0,0,0,0,0,0,0,0,0,0,0,0,0,0,0,0,0,0,0,0,0,0,0,0,0.0883,0.0884,0,0.0934,0.0934,0.0935,0.0953,0.0952,0.0952,0.0952,0.1006,0.1007,0.1009,0,0,0,0,0,0,0,0,0,0,0,0,0,0.0807,0.0809,0.0883,0.0884,0.0885,0.0934,0.0934,0.0935,0.0953,0.0952,0.0952,0.0952,0.1005,0.1007,0.1009,0,0,0,0,0,0,0,0,0,0,0,0,0,0.0847,0.0809,0.0883,0.0899,0.0901,0.0933,0.0934,0.0935,0.0953,0.0952,0.0952,0.0952,0.1004,0.1007,0.1009,0.103,0,0,0.1016,0.1018,0,0,0,0,0,0,0,0,0.0845,0.085,0.0896,0.0898,0.0901,0.0937,0.0927,0.0967,0.0953,0.0933,0.0952,0.0952,0.0983,0.0987,0.0997,0.1032,0.1034,0.1017,0.1018,0.1019,0.102,0,0,0,0,0,0,0,0.0842,0.0848,0.0903,0.0897,0.09,0.0906,0.0911,0.0935,0.0959,0.0935,0.0936,0.0942,0.0984,0.0995,0.0999,0.1035,0.1017,0.1019,0.102,0.1021,0.1094,0.1094,0,0,0,0,0,0,0.0836,0.0845,0.0902,0.0905,0.0871,0.0907,0.0913,0.0925,0.0959,0.0964,0.0942,0.0943,0.0991,0.0996,0.1001,0.1029,0.1019,0.1021,0.1023,0.1093,0.1094,0.1094,0,0,0,0,0,0,0.0834,0.0841,0.09,0.0876,0.0884,0.0909,0.0922,0.0926,0.0937,0.0964,0.0969,0.0948,0.0991,0.0997,0.1023,0.1031,0.1022,0.1025,0.1093,0.1093,0.1094,0.1085,0,0,0,0,0,0,0.0832,0.084,0.0847,0.0876,0.0885,0.092,0.0923,0.0928,0.0941,0.0942,0.0971,0.0976,0.0991,0.1019,0.1025,0.1034,0.1027,0.1092,0.1093,0.1094,0.1084,0.1085,0.1086,0,0,0,0,0,0.0829,0.0842,0.0847,0.0854,0.0893,0.092,0.0925,0.0942,0.0941,0.095,0.0968,0.0975,0.1029,0.1022,0.1029,0.1038,0.1091,0.1093,0.1094,0.1084,0.1085,0.1086,0,0,0,0,0,0,0.0813,0.0846,0.0852,0.0874,0.0894,0.0923,0.0933,0.0942,0.0963,0.0963,0.0983,0.099,0.1015,0.1029,0.102,0.1062,0.1061,0.1064,0.1052,0.1052,0.1053,0.1049,0.1029,0,0,0,0,0,0.0812,0.083,0.0858,0.0875,0.0885,0.0907,0.0919,0.0931,0.0953,0.0962,0.0981,0.1003,0.1026,0.104,0.1062,0.1087,0.1095,0.1097,0.1098,0.1098,0.11,0.1118,0.112,0.1098,0.1098,0.1098,0,0,0.081,0.083,0.084,0.0872,0.0889,0.0909,0.0914,0.0934,0.095,0.0965,0.0991,0.1006,0.1033,0.1059,0.1072,0.1072,0.1109,0.11,0.11,0.1102,0.112,0.1122,0.1124,0.1099,0.1098,0.1098,0,0,0.0817,0.0833,0.085,0.0868,0.0894,0.0909,0.0914,0.0942,0.0953,0.0979,0.0992,0.1012,0.1049,0.1068,0.1083,0.1101,0.111,0.1108,0.1111,0.1128,0.113,0.1131,0.114,0.1143,0.111,0.111,0.111,0,0.0811,0.084,0.0858,0.0878,0.0893,0.0908,0.0927,0.0944,0.0976,0.0987,0.0986,0.1036,0.1054,0.1087,0.1092,0.1102,0.111,0.1104,0.1128,0.113,0.1132,0.114,0.1143,0.1109,0.1109,0.1109,0.1109,0,0.0834,0.0854,0.0865,0.0896,0.0912,0.0931,0.0954,0.0969,0.098,0.0996,0.1025,0.1048,0.1076,0.1085,0.1095,0.112,0.112,0.1123,0.1123,0.1133,0.1142,0.1145,0.1109,0.1109,0.1109,0.1109,0,0,0.0829,0.0872,0.0876,0.0892,0.0923,0.094,0.0962,0.0989,0.1003,0.1025,0.1046,0.1079,0.1083,0.11,0.1113,0.1128,0.1145,0.113,0.1131,0.1134,0.1177,0.1175,0.1178,0.1151,0.1151,0.1152,0.1175,0,0.0841,0.0879,0.0897,0.0928,0.0949,0.0966,0.0985,0.1008,0.1025,0.1046,0.1065,0.1089,0.1092,0.1103,0.1118,0.1139,0.1154,0.1138,0.1172,0.1173,0.1165,0.1182,0.1179,0.12,0.1179,0.1179,0.118,0,0.0859,0.0882,0.0915,0.0948,0.0957,0.0974,0.1003,0.1022,0.105,0.1061,0.1082,0.1095,0.1121,0.1119,0.1157,0.1146,0.1162,0.1175,0.1176,0.118,0.1177,0.1188,0.1207,0.121,0.1185,0.1184,0.1184,0,0.0855,0.0894,0.092,0.0933,0.0971,0.0983,0.0999,0.1026,0.1043,0.1069,0.1081,0.1109,0.1125,0.1148,0.117,0.1166,0.1207,0.1206,0.1219,0.1219,0.1227,0.1226,0.1249,0.1235,0.1235,0.1235,0.1235,0,0.0866,0.0886,0.0919,0.0935,0.0959,0.0981,0.1005,0.1023,0.1048,0.107,0.1086,0.1106,0.1133,0.1158,0.1176,0.1206,0.1213,0.1224,0.1229,0.1223,0.1222,0.1234,0.1234,0.1236,0.1236,0.1236,0.1235,0,0.0865,0.0887,0.0917,0.0951,0.0961,0.0977,0.1008,0.1025,0.1044,0.1071,0.1079,0.1109,0.1139,0.1163,0.1202,0.1215,0.1247,0.1251,0.1238,0.124,0.1253,0.1252,0.1285,0.1292,0.1272,0.1272,0.1272,0,0.087,0.0887,0.0924,0.0939,0.0956,0.098,0.0998,0.1022,0.104,0.1075,0.1089,0.112,0.1146,0.1194,0.122,0.1252,0.1258,0.1268,0.1263,0.1258,0.1261,0.126,0.1263,0.1268,0.1268,0.1268,0.1268,0,0.0879,0.0891,0.0915,0.0945,0.0966,0.099,0.1015,0.1027,0.1056,0.1077,0.1108,0.1128,0.1169,0.1201,0.1236,0.1255,0.1268,0.127,0.1275,0.127,0.1262,0.1269,0.124,0.1269,0.1269,0.1269,0.1269,0.1269,0.0883,0.0899,0.0929,0.0957,0.0978,0.1002,0.1021,0.1044,0.107,0.1105,0.1118,0.1151,0.1182,0.123,0.125,0.1277,0.1279,0.1285,0.1287,0.1289,0.1289,0.1257,0.1284,0.1284,0.1284,0.1284,0.1284,0,0.0894,0.0915,0.094,0.0975,0.0998,0.1008,0.1037,0.1056,0.1085,0.1113,0.1139,0.1177,0.1209,0.1239,0.1273,0.129,0.1297,0.1298,0.1298,0.1303,0.1285,0.1278,0.1293,0.1293,0.1292,0.1292,0.1292,0.1292,0.0902,0.0932,0.0947,0.0989,0.101,0.1042,0.1058,0.1081,0.1104,0.1146,0.1172,0.1192,0.1222,0.1259,0.1291,0.1299,0.1312,0.1312,0.1322,0.1305,0.1304,0.1302,0.1296,0.1314,0.1314,0.1338,0.1338,0.1338]},{"header":{"parameterUnit":"m.s-1","parameterCategory":1,"la1":30.2991,"la2":30.254,"lo1":-89.0895,"lo2":-89.0444,"dy":0.0017,"dx":0.0017,"nx":28,"ny":28,"refTime":"2023-08-30T21:00:00:Z","depth":0,"parameterNumber":3,"parameterNumberName":"V-component_of_WINDS"},"data":[0,0,0,0,0,0,0,0,0,0,0,0,0,0,0,0,0,0,0,0,0,0,0,0,0,0,0,0,0,0,0,0,0,0,0,0,0,0,0,0,0,0,0,0,0,0,0,0,0,0,0,0,0,0,0,0,0,0,-3.0836,-3.0836,0,-3.082,-3.082,-3.082,-3.0854,-3.0855,-3.0856,-3.0858,-3.0838,-3.0836,-3.0834,0,0,0,0,0,0,0,0,0,0,0,0,0,-3.0894,-3.0892,-3.0836,-3.0836,-3.0836,-3.082,-3.082,-3.082,-3.0854,-3.0855,-3.0857,-3.0858,-3.0838,-3.0836,-3.0834,0,0,0,0,0,0,0,0,0,0,0,0,0,-3.0872,-3.0892,-3.0837,-3.0851,-3.0853,-3.082,-3.082,-3.082,-3.0854,-3.0855,-3.0857,-3.0859,-3.0839,-3.0836,-3.0834,-3.0786,0,0,-3.0827,-3.0826,0,0,0,0,0,0,0,0,-3.0873,-3.087,-3.0849,-3.085,-3.0852,-3.0841,-3.0833,-3.0808,-3.0853,-3.0853,-3.0858,-3.086,-3.0837,-3.0835,-3.0828,-3.0785,-3.0784,-3.0827,-3.0825,-3.0824,-3.0823,0,0,0,0,0,0,0,-3.0875,-3.0871,-3.083,-3.0849,-3.085,-3.0858,-3.0856,-3.0828,-3.0836,-3.0853,-3.0856,-3.0854,-3.0838,-3.083,-3.0828,-3.0783,-3.0827,-3.0825,-3.0823,-3.0822,-3.0696,-3.0695,0,0,0,0,0,0,-3.0875,-3.0872,-3.083,-3.0829,-3.0867,-3.0855,-3.0854,-3.0843,-3.0836,-3.0837,-3.0852,-3.0855,-3.0834,-3.0831,-3.0827,-3.0767,-3.0824,-3.0822,-3.0821,-3.0698,-3.0696,-3.0694,0,0,0,0,0,0,-3.0876,-3.0871,-3.0831,-3.0851,-3.0847,-3.0852,-3.084,-3.0841,-3.0834,-3.0835,-3.0836,-3.0843,-3.0835,-3.0831,-3.0795,-3.0767,-3.0821,-3.0819,-3.0701,-3.0698,-3.0695,-3.0648,0,0,0,0,0,0,-3.0877,-3.0871,-3.0853,-3.0851,-3.0846,-3.08,-3.0838,-3.084,-3.083,-3.0834,-3.0827,-3.0828,-3.0836,-3.0799,-3.0793,-3.0765,-3.0817,-3.0703,-3.0699,-3.0696,-3.0652,-3.0644,-3.0637,0,0,0,0,0,-3.0879,-3.0841,-3.0852,-3.0847,-3.0824,-3.0799,-3.0795,-3.0807,-3.0828,-3.0809,-3.081,-3.0828,-3.0772,-3.0795,-3.0789,-3.0759,-3.0705,-3.07,-3.0696,-3.0656,-3.0646,-3.0637,0,0,0,0,0,0,-3.0839,-3.0841,-3.0853,-3.0813,-3.0806,-3.0804,-3.0781,-3.0796,-3.0781,-3.0785,-3.0799,-3.0797,-3.0758,-3.0756,-3.0781,-3.0711,-3.0742,-3.0736,-3.0713,-3.0704,-3.0696,-3.0696,-3.0815,0,0,0,0,0,-3.0826,-3.0806,-3.0808,-3.0772,-3.0768,-3.0775,-3.0765,-3.0774,-3.0766,-3.0763,-3.0761,-3.0752,-3.0732,-3.0718,-3.0701,-3.0654,-3.0651,-3.063,-3.0623,-3.0617,-3.061,-3.0582,-3.0572,-3.068,-3.068,-3.068,0,0,-3.0797,-3.0796,-3.0782,-3.0764,-3.0759,-3.0737,-3.0772,-3.0748,-3.073,-3.0759,-3.0724,-3.0723,-3.0714,-3.0671,-3.0653,-3.0668,-3.058,-3.0611,-3.0606,-3.0603,-3.0576,-3.0566,-3.0557,-3.0677,-3.0677,-3.0678,0,0,-3.0733,-3.0732,-3.07,-3.0695,-3.0687,-3.0692,-3.0685,-3.0681,-3.0681,-3.0648,-3.0668,-3.0648,-3.0614,-3.0605,-3.0597,-3.0529,-3.0544,-3.0524,-3.0482,-3.0455,-3.0446,-3.0438,-3.041,-3.0401,-3.0518,-3.0518,-3.0518,0,-3.0698,-3.0666,-3.0682,-3.0655,-3.0645,-3.0672,-3.0638,-3.0632,-3.0619,-3.061,-3.0629,-3.0586,-3.0582,-3.0536,-3.0519,-3.0513,-3.0502,-3.0522,-3.0446,-3.0439,-3.0432,-3.0405,-3.0395,-3.0515,-3.0515,-3.0516,-3.0516,0,-3.0621,-3.0599,-3.0574,-3.056,-3.0549,-3.0519,-3.0529,-3.0515,-3.0525,-3.0528,-3.0492,-3.0488,-3.0469,-3.046,-3.047,-3.0415,-3.0424,-3.0445,-3.0475,-3.0419,-3.0393,-3.0384,-3.0511,-3.0512,-3.0513,-3.0514,0,0,-3.0528,-3.0524,-3.0515,-3.0508,-3.0502,-3.0484,-3.0455,-3.0437,-3.0422,-3.0413,-3.0387,-3.0358,-3.0376,-3.0366,-3.0376,-3.0353,-3.0295,-3.0375,-3.0375,-3.0357,-3.0229,-3.021,-3.0199,-3.0306,-3.0305,-3.0303,-3.0229,0,-3.0461,-3.0411,-3.0425,-3.0374,-3.0352,-3.0377,-3.0352,-3.0344,-3.0346,-3.0327,-3.0329,-3.0307,-3.0335,-3.0328,-3.0306,-3.0306,-3.0268,-3.0313,-3.0278,-3.0277,-3.0275,-3.0186,-3.0167,-3.0096,-3.0219,-3.0218,-3.0217,0,-3.0376,-3.0363,-3.031,-3.0306,-3.0297,-3.0274,-3.0257,-3.0239,-3.0231,-3.0234,-3.0223,-3.0237,-3.0206,-3.0241,-3.0197,-3.0227,-3.0214,-3.0212,-3.021,-3.0203,-3.024,-3.0173,-3.0075,-3.0062,-3.0202,-3.0203,-3.0204,0,-3.0307,-3.0277,-3.0241,-3.0235,-3.0231,-3.0213,-3.021,-3.0204,-3.0192,-3.0177,-3.0169,-3.0151,-3.014,-3.0125,-3.0134,-3.0159,-3.0087,-3.0123,-3.0086,-3.0085,-3.0065,-3.0066,-2.9959,-3.0065,-3.0066,-3.0066,-3.0066,0,-3.0229,-3.0194,-3.021,-3.0187,-3.0149,-3.0165,-3.0126,-3.0126,-3.012,-3.0096,-3.0119,-3.0096,-3.0111,-3.0089,-3.0096,-3.0056,-3.0052,-3.0051,-3.0053,-3.0046,-3.0046,-3.0035,-3.0038,-3.0063,-3.0064,-3.0064,-3.0065,0,-3.0144,-3.0154,-3.0115,-3.0115,-3.0114,-3.0085,-3.0084,-3.0061,-3.0066,-3.0036,-3.0029,-3.0036,-3.0011,-3.0019,-2.9992,-2.9997,-2.9945,-2.9955,-2.9947,-2.9948,-2.9908,-2.991,-2.9787,-2.977,-2.9892,-2.9891,-2.989,0,-3.009,-3.0064,-3.0061,-3.0047,-3.0043,-3.0021,-3.0008,-3.0023,-3.0009,-2.9997,-2.9976,-2.9953,-2.9935,-2.9893,-2.9894,-2.9873,-2.988,-2.9839,-2.9877,-2.987,-2.9874,-2.9873,-2.9868,-2.9829,-2.9828,-2.9827,-2.9826,0,-2.9993,-2.9999,-2.9981,-2.9963,-2.9948,-2.9935,-2.9924,-2.9911,-2.9926,-2.9908,-2.9883,-2.9869,-2.9842,-2.9817,-2.9798,-2.9794,-2.981,-2.9815,-2.9804,-2.9794,-2.9789,-2.9787,-2.9921,-2.9816,-2.9817,-2.9818,-2.9818,-2.9819,-2.9919,-2.9896,-2.9889,-2.9868,-2.9861,-2.985,-2.9828,-2.9831,-2.981,-2.9789,-2.98,-2.977,-2.9761,-2.9737,-2.9731,-2.9706,-2.9722,-2.9707,-2.9703,-2.9698,-2.969,-2.9797,-2.9703,-2.9704,-2.9704,-2.9704,-2.9704,0,-2.9818,-2.9816,-2.9796,-2.978,-2.9762,-2.9783,-2.9771,-2.9754,-2.9727,-2.9719,-2.9701,-2.967,-2.9647,-2.9647,-2.9625,-2.9605,-2.9611,-2.9598,-2.9597,-2.9594,-2.968,-2.9689,-2.9592,-2.9592,-2.9592,-2.9592,-2.9592,-2.9592,-2.9764,-2.9724,-2.973,-2.9687,-2.9685,-2.9656,-2.9647,-2.9636,-2.9629,-2.9594,-2.9575,-2.9576,-2.957,-2.9547,-2.9526,-2.9526,-2.9514,-2.9497,-2.9499,-2.9578,-2.9589,-2.9599,-2.9608,-2.9496,-2.9495,-2.9415,-2.9415,-2.9414]}]]